Tracking 19562 objects as of 24-Mar-2019
HD Live streaming from Space Station
objects crossing your sky now

MIDAS 4

Track MIDAS 4 now!
10-day predictions
MIDAS 4 is classified as:


NORAD ID: 192
Int'l Code: 1961-028A
Perigee: 3,490.8 km
Apogee: 3,773.4 km
Inclination: 95.9 °
Period: 165.9 minutes
Semi major axis: 10003 km
RCS: 10.3526 m2 (large)
Launch date: October 21, 1961
Source: United States (US)
Launch site: AIR FORCE WESTERN TEST RANGE (AFWTR)
aabbcc
Your satellite tracking list
Your tracking list is empty




NASA's NSSDC Master Catalog

Two Line Element Set (TLE):
1   192U 61028A   19081.66311102 -.00000000 +00000-0 +13092-2 0  9996
2   192 095.8637 027.5591 0141268 034.5173 326.4759 08.67759574818850
Source of the keplerian elements: AFSPC